period_start,C,m1,H,J0,J1,J2,J3,J4,J5,JA,JB,JC,JD,JJ,JK,JN,#
2016-01-23 00:00:33,0.25,4.07,0.00,15.10,19.35,23.26,15.14,49.17,1021.17,2064.00,2378.50,2173.43,2469.51,600.23,615.40,20.38,0000 0000 0000 0000 000000
2016-01-23 00:05:35,0.25,4.09,0.00,15.06,19.37,23.27,15.08,49.19,1021.28,2063.99,2375.42,2171.18,2466.99,599.93,615.20,20.43,0000 0000 0000 0000 000000
2016-01-23 00:10:36,0.26,4.10,0.00,15.07,19.37,23.21,15.10,49.36,1021.03,2063.99,2372.28,2168.85,2464.32,600.14,615.24,20.48,0000 0000 0000 0000 000000
2016-01-23 00:15:38,0.25,4.11,0.00,15.09,19.37,23.26,15.01,49.42,1021.01,2063.98,2369.21,2166.52,2461.67,599.89,615.04,20.53,0000 0000 0000 0000 000000
2016-01-23 00:20:39,0.25,4.13,0.00,15.09,19.37,23.24,15.01,49.39,1021.01,2063.99,2366.32,2164.28,2459.09,600.07,615.11,20.58,0000 0000 0000 0000 000000
2016-01-23 00:25:41,0.26,4.14,0.00,15.12,19.37,23.23,15.23,49.28,1021.01,2063.98,2363.18,2161.91,2456.40,600.59,615.46,20.63,0000 0000 0000 0000 000000
2016-01-23 00:30:42,0.27,4.15,0.00,15.14,19.37,23.27,15.07,49.11,1021.03,2063.98,2359.85,2159.49,2453.66,600.05,615.10,20.68,0000 0000 0000 0000 000000
2016-01-23 00:35:43,0.27,4.17,0.00,15.13,19.37,23.26,15.19,48.98,1021.23,2063.97,2356.50,2157.14,2451.03,600.11,615.24,20.73,0000 0000 0000 0000 000000
2016-01-23 00:40:44,0.26,4.18,0.00,15.12,19.38,23.25,15.04,49.05,1021.09,2063.97,2353.18,2154.77,2448.38,600.08,615.13,20.78,0000 0000 0000 0000 000000
2016-01-23 00:45:46,0.26,4.19,0.00,15.14,19.39,23.23,15.02,48.98,1021.15,2063.99,2350.05,2152.46,2445.76,599.91,614.92,20.83,0000 0000 0000 0000 000000
2016-01-23 00:50:47,0.26,4.21,0.00,15.14,19.39,23.26,15.13,49.19,1021.05,2063.98,2346.93,2150.16,2443.18,600.25,615.14,20.88,0000 0000 0000 0000 000000
2016-01-23 00:55:48,0.24,4.22,0.00,15.18,19.39,23.30,15.16,49.27,1021.00,2063.97,2344.13,2147.96,2440.67,600.48,615.26,20.93,0000 0000 0000 0000 000000
2016-01-23 01:00:50,0.25,4.23,0.00,15.19,19.41,23.29,15.09,49.06,1020.99,2063.93,2341.24,2145.71,2438.12,600.15,615.07,20.98,0000 0000 0000 0000 000000
2016-01-23 01:05:51,0.25,4.24,0.00,15.18,19.42,23.31,14.94,48.91,1020.75,2063.92,2338.12,2143.43,2435.54,599.84,614.48,21.03,0000 0000 0000 0000 000000
2016-01-23 01:10:52,0.27,4.26,0.00,15.16,19.42,23.33,15.03,48.99,1020.97,2063.83,2334.88,2141.08,2432.86,599.87,614.71,21.08,0000 0000 0000 0000 000000
2016-01-23 01:15:53,0.24,4.27,0.00,15.18,19.43,23.31,15.12,49.06,1021.00,2063.68,2331.69,2138.76,2430.33,600.35,615.36,21.13,0000 0000 0000 0000 000000
2016-01-23 01:20:55,0.27,4.28,0.00,15.18,19.44,23.33,15.10,49.05,1021.01,2063.68,2328.47,2136.42,2427.74,600.33,615.27,21.18,0000 0000 0000 0000 000000
2016-01-23 01:25:56,0.26,4.30,0.00,15.17,19.44,23.36,15.03,49.17,1020.85,2063.72,2325.35,2134.17,2425.21,599.80,614.52,21.23,0000 0000 0000 0000 000000
2016-01-23 01:30:57,0.21,4.31,0.00,15.14,19.45,23.39,15.09,49.27,1020.53,2063.46,2322.33,2131.91,2422.65,599.79,614.53,21.28,0000 0000 0000 0000 000000
2016-01-23 01:35:59,0.24,4.32,0.00,15.17,19.47,23.40,14.96,49.22,1020.27,2063.25,2319.41,2129.71,2420.10,599.77,614.18,21.33,0000 0000 0000 0000 000000
2016-01-23 01:41:00,0.26,4.33,0.00,15.20,19.47,23.38,14.98,49.20,1019.96,2063.17,2316.23,2127.39,2417.49,599.86,613.97,21.38,0000 0000 0000 0000 000000
2016-01-23 01:46:02,0.24,4.34,0.00,15.21,19.47,23.34,14.94,49.69,1019.20,2063.17,2313.38,2125.24,2415.12,599.76,613.43,21.43,0000 0000 0000 0000 000000
2016-01-23 01:51:03,0.23,4.36,0.00,15.24,19.48,23.36,15.19,49.60,1019.11,2063.07,2310.64,2123.09,2412.63,600.26,613.82,21.48,0000 0000 0000 0000 000000
2016-01-23 01:56:04,0.26,4.37,0.00,15.24,19.49,23.41,15.09,49.27,1019.55,2063.03,2307.56,2120.87,2410.12,600.06,613.94,21.53,0000 0000 0000 0000 000000
2016-01-23 02:01:05,0.26,4.38,0.00,15.23,19.49,23.43,15.03,49.20,1019.60,2063.04,2304.46,2118.62,2407.64,599.80,613.69,21.58,0000 0000 0000 0000 000000
2016-01-23 02:06:07,0.26,4.40,0.00,15.24,19.49,23.43,15.03,49.28,1019.58,2063.05,2301.35,2116.36,2405.11,599.91,613.81,21.63,0000 0000 0000 0000 000000
2016-01-23 02:11:08,0.24,4.41,0.00,15.22,19.49,23.36,15.00,49.24,1019.55,2063.02,2298.41,2114.22,2402.68,600.05,613.94,21.68,0000 0000 0000 0000 000000
2016-01-23 02:16:09,0.25,4.42,0.00,15.25,19.51,23.38,15.03,49.22,1019.56,2063.02,2295.50,2112.07,2400.24,600.09,613.91,21.73,0000 0000 0000 0000 000000
2016-01-23 02:21:11,0.24,4.43,0.00,15.27,19.52,23.42,15.08,49.20,1019.60,2063.00,2292.59,2110.14,2397.82,600.36,614.10,21.78,0000 0000 0000 0000 000000
2016-01-23 02:26:11,0.26,4.45,0.00,15.25,19.52,23.40,15.12,49.23,1019.54,2063.01,2289.56,2107.99,2395.36,599.94,613.74,21.83,0000 0000 0000 0000 000000
2016-01-23 02:31:13,0.23,4.46,0.00,15.27,19.53,23.41,15.15,49.28,1019.42,2063.01,2286.88,2105.92,2393.03,600.31,614.01,21.88,0000 0000 0000 0000 000000
2016-01-23 02:36:14,0.25,4.47,0.00,15.31,19.54,23.49,15.04,49.24,1019.18,2063.00,2283.85,2103.76,2390.60,600.17,613.65,21.93,0000 0000 0000 0000 000000
2016-01-23 02:41:15,0.25,4.48,0.00,15.31,19.54,23.48,15.06,49.17,1019.13,2063.00,2280.81,2101.60,2388.20,600.18,613.57,21.98,0000 0000 0000 0000 000000
2016-01-23 02:46:17,0.25,4.50,0.00,15.32,19.56,23.45,14.98,49.14,1019.09,2063.00,2277.90,2099.52,2385.86,599.62,613.03,22.03,0000 0000 0000 0000 000000
2016-01-23 02:51:18,0.23,4.51,0.00,15.30,19.57,23.48,15.08,49.27,1019.06,2063.00,2275.18,2097.47,2383.52,600.10,613.38,22.08,0000 0000 0000 0000 000000
2016-01-23 02:56:19,0.23,4.52,0.00,15.33,19.57,23.48,15.01,49.15,1019.16,2063.00,2272.63,2095.52,2381.30,599.71,613.18,22.13,0000 0000 0000 0000 000000
2016-01-23 03:01:21,0.24,4.53,0.00,15.33,19.59,23.55,15.07,49.13,1019.30,2063.00,2269.89,2093.51,2379.07,599.93,613.38,22.18,0000 0000 0000 0000 000000
2016-01-23 03:06:22,0.25,4.54,0.00,15.32,19.59,23.50,15.03,49.18,1019.14,2063.00,2266.95,2091.44,2376.70,600.01,613.46,22.23,0000 0000 0000 0000 000000
2016-01-23 03:11:24,0.24,4.56,0.00,15.35,19.60,23.54,15.04,49.35,1019.31,2063.00,2264.04,2089.36,2374.36,599.87,613.40,22.28,0000 0000 0000 0000 000000
2016-01-23 03:16:25,0.25,4.57,0.00,15.39,19.62,23.53,15.05,49.30,1019.50,2063.00,2261.09,2087.28,2372.04,599.92,613.34,22.33,0000 0000 0000 0000 000000
2016-01-23 03:21:26,0.24,4.58,0.00,15.42,19.62,23.54,15.12,49.38,1019.54,2063.00,2258.23,2085.21,2369.69,600.15,613.61,22.38,0000 0000 0000 0000 000000
2016-01-23 03:26:28,0.23,4.59,0.00,15.41,19.63,23.54,15.09,49.39,1019.20,2062.98,2255.64,2083.24,2367.50,600.09,613.47,22.43,0000 0000 0000 0000 000000
2016-01-23 03:31:29,0.25,4.61,0.00,15.42,19.64,23.56,15.01,49.38,1019.06,2062.98,2252.75,2081.15,2365.31,600.08,613.24,22.48,0000 0000 0000 0000 000000
2016-01-23 03:36:30,0.24,4.62,0.00,15.42,19.64,23.53,15.00,49.38,1019.06,2062.98,2249.99,2079.08,2363.06,599.63,612.91,22.53,0000 0000 0000 0000 000000
2016-01-23 03:41:31,0.25,4.63,0.00,15.40,19.66,23.63,15.07,49.45,1019.06,2062.98,2247.15,2077.05,2360.75,600.22,613.42,22.58,0000 0000 0000 0000 000000
2016-01-23 03:46:32,0.25,4.65,0.00,15.44,19.67,23.59,15.10,49.46,1019.06,2062.97,2244.35,2075.04,2358.44,600.35,613.40,22.63,0000 0000 0000 0000 000000
2016-01-23 03:51:34,0.25,4.66,0.00,15.44,19.68,23.62,15.00,49.35,1019.06,2062.97,2241.50,2072.98,2356.12,600.29,613.38,22.68,0000 0000 0000 0000 000000
2016-01-23 03:56:35,0.23,4.67,0.00,15.46,19.69,23.62,15.07,49.41,1019.13,2062.96,2238.93,2070.97,2353.82,599.92,613.22,22.73,0000 0000 0000 0000 000000
2016-01-23 04:01:36,0.25,4.68,0.00,15.47,19.69,23.64,15.09,49.33,1019.21,2062.93,2236.18,2068.90,2351.54,600.03,613.20,22.78,0000 0000 0000 0000 000000
2016-01-23 04:06:37,0.23,4.69,0.00,15.51,19.71,23.65,15.07,49.38,1019.12,2062.84,2233.41,2066.84,2349.21,600.28,613.28,22.83,0000 0000 0000 0000 000000
2016-01-23 04:11:39,0.23,4.71,0.00,15.54,19.72,23.67,14.92,49.23,1019.07,2062.79,2230.74,2064.90,2347.02,599.82,612.78,22.88,0000 0000 0000 0000 000000
2016-01-23 04:16:40,0.21,4.72,0.00,15.52,19.74,23.70,14.96,49.15,1018.93,2062.57,2228.07,2062.88,2344.70,599.86,612.84,22.93,0000 0000 0000 0000 000000
2016-01-23 04:21:41,0.21,4.73,0.00,15.53,19.74,23.69,15.01,49.05,1018.71,2062.18,2225.31,2060.84,2342.42,599.75,612.50,22.98,0000 0000 0000 0000 000000
2016-01-23 04:26:41,0.26,4.74,0.00,15.58,19.75,23.70,15.02,49.18,1018.62,2062.10,2222.39,2058.75,2340.07,599.99,612.56,23.03,0000 0000 0000 0000 000000
2016-01-23 04:31:43,0.22,4.75,0.00,15.57,19.77,23.74,14.85,49.08,1018.62,2062.08,2219.68,2056.77,2337.82,599.71,612.15,23.08,0000 0000 0000 0000 000000
2016-01-23 04:36:44,0.25,4.76,0.00,15.56,19.77,23.76,15.08,49.29,1018.58,2062.06,2216.96,2054.75,2335.51,600.11,612.69,23.13,0000 0000 0000 0000 000000
2016-01-23 04:41:45,0.26,4.78,0.00,15.59,19.79,23.73,15.18,49.30,1018.57,2062.02,2213.86,2052.69,2333.14,600.47,612.85,23.18,0000 0000 0000 0000 000000
2016-01-23 04:46:47,0.25,4.79,0.00,15.59,19.79,23.77,15.04,49.27,1018.56,2062.03,2211.02,2050.65,2330.84,599.85,612.30,23.23,0000 0000 0000 0000 000000
2016-01-23 04:51:48,0.31,4.81,0.00,15.61,19.80,23.82,15.04,49.32,1018.57,2062.01,2207.99,2048.03,2327.93,599.76,612.38,23.28,0000 0000 0000 0000 000000
2016-01-23 04:56:50,0.23,4.82,0.00,15.61,19.82,23.76,15.10,49.41,1018.51,2062.01,2205.07,2046.22,2325.54,600.28,612.72,23.34,0000 0000 0000 0000 000000
2016-01-23 05:01:51,0.25,4.83,0.00,15.62,19.82,23.77,15.09,49.55,1018.24,2062.02,2202.25,2044.23,2323.24,600.14,612.40,23.39,0000 0000 0000 0000 000000
2016-01-23 05:06:52,0.24,4.84,0.00,15.64,19.82,23.78,15.08,49.42,1018.12,2062.00,2199.55,2042.22,2321.02,600.10,612.24,23.44,0000 0000 0000 0000 000000
2016-01-23 05:11:53,0.25,4.86,0.00,15.64,19.84,23.76,15.01,49.38,1018.13,2062.00,2196.75,2040.20,2318.72,599.94,611.97,23.49,0000 0000 0000 0000 000000
2016-01-23 05:16:54,0.24,4.87,0.00,15.67,19.84,23.80,14.99,49.63,1018.09,2062.00,2194.07,2038.18,2316.46,600.29,612.45,23.54,0000 0000 0000 0000 000000
2016-01-23 05:21:56,0.24,4.88,0.00,15.71,19.85,23.83,15.14,49.40,1018.07,2061.99,2191.48,2036.30,2314.26,600.10,612.12,23.59,0000 0000 0000 0000 000000
2016-01-23 05:26:57,0.26,4.89,0.00,15.73,19.87,23.75,14.89,49.23,1018.00,2061.99,2188.64,2034.22,2311.99,599.86,611.66,23.64,0000 0000 0000 0000 000000
2016-01-23 05:31:58,0.23,4.91,0.00,15.75,19.87,23.84,15.02,49.48,1017.90,2061.98,2185.98,2032.30,2309.70,600.17,611.94,23.69,0000 0000 0000 0000 000000
2016-01-23 05:37:00,0.25,4.92,0.00,15.81,19.88,23.85,15.01,49.33,1018.08,2061.98,2183.27,2030.26,2307.43,599.89,611.64,23.74,0000 0000 0000 0000 000000
2016-01-23 05:42:01,0.25,4.93,0.00,15.79,19.89,23.89,15.02,49.13,1018.09,2061.96,2180.49,2028.26,2305.20,600.04,611.88,23.79,0000 0000 0000 0000 000000
2016-01-23 05:47:03,0.25,4.94,0.00,15.77,19.89,23.86,14.93,49.14,1018.12,2061.96,2177.60,2026.18,2302.95,599.93,611.65,23.84,0000 0000 0000 0000 000000
2016-01-23 05:52:04,0.26,4.96,0.00,15.78,19.91,23.87,15.02,49.21,1018.08,2061.96,2174.73,2024.16,2300.66,600.17,611.93,23.89,0000 0000 0000 0000 000000
2016-01-23 05:57:06,0.27,4.97,0.00,15.81,19.92,23.89,14.99,49.16,1017.86,2061.95,2171.88,2022.09,2298.29,599.94,611.49,23.94,0000 0000 0000 0000 000000
2016-01-23 06:02:07,0.24,4.98,0.00,15.83,19.93,23.89,14.91,49.16,1017.68,2061.91,2169.16,2020.09,2296.10,599.86,611.31,23.99,0000 0000 0000 0000 000000
2016-01-23 06:07:08,0.22,4.99,0.00,15.82,19.94,23.92,14.98,49.01,1017.76,2061.68,2166.51,2018.10,2293.80,600.11,611.73,24.04,0000 0000 0000 0000 000000
2016-01-23 06:12:09,0.21,5.01,0.00,15.86,19.95,23.87,14.95,49.13,1017.79,2061.34,2163.68,2016.08,2291.46,600.01,611.58,24.09,0000 0000 0000 0000 000000
2016-01-23 06:17:11,0.23,5.02,0.00,15.88,19.97,23.91,14.98,49.21,1017.60,2061.10,2161.11,2014.04,2289.23,600.23,611.53,24.14,0000 0000 0000 0000 000000
2016-01-23 06:22:12,0.23,5.03,0.00,15.91,19.98,23.93,14.89,49.12,1017.59,2061.04,2158.59,2012.15,2287.13,599.78,610.97,24.19,0000 0000 0000 0000 000000
2016-01-23 06:27:13,0.25,5.04,0.00,15.91,19.99,23.98,14.96,49.23,1017.58,2061.01,2155.96,2010.17,2284.87,600.02,611.20,24.24,0000 0000 0000 0000 000000
2016-01-23 06:32:14,0.25,5.05,0.00,15.93,19.99,23.98,14.96,49.26,1017.44,2061.00,2153.22,2008.22,2282.59,600.05,611.12,24.29,0000 0000 0000 0000 000000
2016-01-23 06:37:15,0.26,5.07,0.00,15.94,20.01,23.99,15.01,49.23,1017.54,2061.00,2150.40,2006.20,2280.35,599.99,611.25,24.34,0000 0000 0000 0000 000000
2016-01-23 06:42:17,0.27,5.08,0.00,15.96,20.02,23.96,14.91,49.08,1017.58,2061.00,2147.48,2004.13,2278.02,599.73,610.82,24.39,0000 0000 0000 0000 000000
2016-01-23 06:47:18,0.25,5.09,0.00,15.94,20.03,23.99,15.04,49.15,1017.57,2060.99,2144.62,2002.12,2275.72,600.13,611.28,24.44,0000 0000 0000 0000 000000
2016-01-23 06:52:19,0.26,5.11,0.00,15.94,20.04,24.01,14.97,49.35,1017.58,2060.99,2141.78,2000.15,2273.49,600.15,611.31,24.49,0000 0000 0000 0000 000000
2016-01-23 06:57:20,0.26,5.12,0.00,15.95,20.05,24.02,14.94,49.14,1017.59,2060.99,2138.98,1998.15,2271.24,599.97,611.14,24.54,0000 0000 0000 0000 000000
2016-01-23 07:02:22,0.25,5.13,0.00,15.96,20.07,24.08,14.94,49.24,1017.57,2060.98,2136.34,1996.17,2269.01,599.87,611.03,24.59,0000 0000 0000 0000 000000
2016-01-23 07:07:23,0.23,5.15,0.00,15.97,20.07,23.99,14.98,49.27,1017.26,2060.98,2133.85,1994.27,2266.87,599.98,610.93,24.64,0000 0000 0000 0000 000000
2016-01-23 07:12:25,0.23,5.16,0.00,16.02,20.09,24.04,14.96,49.27,1017.21,2060.97,2131.37,1992.48,2264.79,599.98,610.72,24.69,0000 0000 0000 0000 000000
2016-01-23 07:17:26,0.26,5.17,0.00,16.05,20.10,24.04,14.81,49.09,1017.28,2060.96,2128.64,1990.53,2262.56,599.62,610.32,24.74,0000 0000 0000 0000 000000
2016-01-23 07:22:27,0.24,5.18,0.00,16.04,20.12,24.10,14.91,49.17,1017.15,2060.94,2126.01,1988.57,2260.39,600.13,610.84,24.79,0000 0000 0000 0000 000000
2016-01-23 07:27:29,0.24,5.19,0.00,16.03,20.13,24.12,15.06,49.38,1017.11,2060.81,2123.35,1986.61,2258.14,600.00,610.78,24.84,0000 0000 0000 0000 000000
2016-01-23 07:32:30,0.23,5.21,0.00,16.07,20.14,24.14,14.93,49.33,1017.11,2060.75,2120.84,1984.76,2256.04,599.74,610.43,24.89,0000 0000 0000 0000 000000
2016-01-23 07:37:32,0.21,5.22,0.00,16.11,20.16,24.10,14.93,49.16,1017.11,2060.46,2118.19,1982.88,2253.72,599.98,610.46,24.94,0000 0000 0000 0000 000000
2016-01-23 07:42:33,0.23,5.23,0.00,16.14,20.17,24.12,14.96,49.05,1017.26,2060.09,2115.34,1980.90,2251.44,599.82,610.50,24.99,0000 0000 0000 0000 000000
2016-01-23 07:47:34,0.27,5.24,0.00,16.13,20.19,24.14,14.92,49.08,1017.22,2060.03,2112.40,1978.83,2249.07,599.84,610.27,25.04,0000 0000 0000 0000 000000
2016-01-23 07:52:36,0.24,5.26,0.00,16.12,20.20,24.13,14.98,49.15,1017.13,2060.01,2109.78,1976.86,2246.84,600.08,610.52,25.09,0000 0000 0000 0000 000000
2016-01-23 07:57:37,0.27,5.27,0.00,16.16,20.22,24.17,14.93,49.02,1017.16,2060.00,2106.95,1974.81,2244.51,600.09,610.54,25.14,0000 0000 0000 0000 000000
2016-01-23 08:02:39,0.26,5.28,0.00,16.18,20.24,24.22,14.90,49.11,1017.11,2060.00,2104.18,1972.80,2242.24,599.98,610.39,25.19,0000 0000 0000 0000 000000
2016-01-23 08:07:40,0.26,5.30,0.00,16.19,20.27,24.22,14.92,49.17,1016.97,2060.00,2101.42,1970.82,2240.02,599.91,610.22,25.24,0000 0000 0000 0000 000000
2016-01-23 08:12:41,0.24,5.31,0.00,16.20,20.28,24.28,14.94,49.17,1016.72,2060.00,2098.86,1968.87,2237.97,599.97,610.14,25.29,0000 0000 0000 0000 000000
2016-01-23 08:17:42,0.26,5.32,0.00,16.22,20.31,24.29,15.02,49.48,1016.65,2059.99,2096.22,1966.91,2235.70,600.17,610.09,25.34,0000 0000 0000 0000 000000
2016-01-23 08:22:43,0.29,5.34,0.00,16.24,20.33,24.32,14.97,49.63,1016.21,2059.98,2093.36,1964.78,2233.31,600.17,609.69,25.39,0000 0000 0000 0000 000000
2016-01-23 08:27:44,0.26,5.35,0.00,16.25,20.34,24.28,14.94,49.75,1015.66,2059.87,2090.40,1962.55,2230.76,600.01,609.41,25.44,0000 0000 0000 0000 000000
2016-01-23 08:32:46,0.23,5.36,0.00,16.27,20.37,24.28,14.88,49.81,1015.63,2059.60,2087.66,1960.56,2228.40,600.06,609.40,25.49,0000 0000 0000 0000 000000
2016-01-23 08:37:47,0.23,5.37,0.00,16.28,20.39,24.33,14.94,49.58,1015.65,2059.19,2084.84,1958.55,2226.06,600.01,609.30,25.54,0000 0000 0000 0000 000000
2016-01-23 08:42:48,0.26,5.39,0.00,16.26,20.42,24.37,14.99,49.56,1015.70,2059.05,2082.16,1956.53,2223.78,599.93,609.36,25.59,0000 0000 0000 0000 000000
2016-01-23 08:47:49,0.26,5.40,0.00,16.24,20.43,24.36,14.94,49.44,1016.06,2059.01,2079.44,1954.54,2221.48,599.81,609.45,25.64,0000 0000 0000 0000 000000
2016-01-23 08:52:51,0.27,5.41,0.00,16.23,20.45,24.37,14.97,49.19,1016.36,2059.00,2076.62,1952.56,2219.23,599.91,609.67,25.69,0000 0000 0000 0000 000000
2016-01-23 08:57:52,0.28,5.43,0.00,16.21,20.47,24.40,14.95,49.11,1016.62,2059.00,2073.68,1950.48,2216.92,599.98,610.01,25.74,0000 0000 0000 0000 000000
2016-01-23 09:02:53,0.27,5.44,0.00,16.21,20.48,24.41,14.98,49.27,1016.62,2059.00,2070.89,1948.43,2214.61,599.95,609.89,25.79,0000 0000 0000 0000 000000
2016-01-23 09:07:55,0.26,5.45,0.00,16.18,20.49,24.37,15.04,49.37,1016.42,2059.00,2068.28,1946.51,2212.41,600.23,610.20,25.84,0000 0000 0000 0000 000000
2016-01-23 09:12:56,0.25,5.47,0.00,16.18,20.51,24.39,14.90,49.48,1016.18,2058.99,2065.74,1944.57,2210.22,599.79,609.65,25.89,0000 0000 0000 0000 000000
2016-01-23 09:17:57,0.27,5.48,0.00,16.19,20.52,24.39,14.92,49.45,1016.27,2058.97,2063.21,1942.61,2208.01,600.14,610.08,25.94,0000 0000 0000 0000 000000
2016-01-23 09:22:58,0.26,5.49,0.00,16.19,20.52,24.45,14.97,49.34,1016.49,2058.97,2060.54,1940.71,2205.76,599.91,609.70,25.99,0000 0000 0000 0000 000000
2016-01-23 09:27:59,0.26,5.51,0.00,16.20,20.53,24.45,14.96,49.16,1016.63,2058.96,2057.88,1938.79,2203.61,599.98,610.02,26.04,0000 0000 0000 0000 000000
2016-01-23 09:33:00,0.28,5.52,0.00,16.19,20.54,24.40,14.91,49.00,1016.71,2058.95,2055.06,1936.81,2201.35,599.89,610.07,26.09,0000 0000 0000 0000 000000
2016-01-23 09:38:02,0.27,5.54,0.00,16.18,20.54,24.45,14.90,49.06,1016.67,2058.94,2052.22,1934.85,2199.13,600.03,610.23,26.14,0000 0000 0000 0000 000000
2016-01-23 09:43:03,0.25,5.55,0.00,16.18,20.54,24.42,15.02,49.17,1016.65,2058.90,2049.50,1932.95,2196.91,600.19,610.38,26.19,0000 0000 0000 0000 000000
2016-01-23 09:48:05,0.24,5.56,0.00,16.15,20.54,24.44,14.91,49.08,1016.62,2058.89,2047.11,1931.12,2194.82,599.79,609.88,26.24,0000 0000 0000 0000 000000
2016-01-23 09:53:06,0.24,5.57,0.00,16.15,20.55,24.43,14.84,49.13,1016.61,2058.87,2044.63,1929.26,2192.71,599.69,609.88,26.29,0000 0000 0000 0000 000000
2016-01-23 09:58:07,0.25,5.59,0.00,16.14,20.56,24.42,14.98,49.24,1016.47,2058.87,2042.10,1927.46,2190.67,599.96,610.09,26.34,0000 0000 0000 0000 000000
2016-01-23 10:03:08,0.24,5.60,0.00,16.16,20.57,24.39,14.87,49.20,1016.31,2058.85,2039.68,1925.66,2188.62,599.75,609.72,26.39,0000 0000 0000 0000 000000
2016-01-23 10:08:10,0.26,5.61,0.00,16.18,20.57,24.36,14.93,49.41,1016.23,2058.88,2037.17,1923.84,2186.59,599.88,609.74,26.44,0000 0000 0000 0000 000000
2016-01-23 10:13:11,0.23,5.62,0.00,16.20,20.57,24.37,14.94,49.43,1016.30,2058.83,2034.75,1922.08,2184.58,599.96,609.83,26.49,0000 0000 0000 0000 000000
2016-01-23 10:18:13,0.26,5.64,0.00,16.19,20.57,24.44,14.97,49.47,1016.43,2058.82,2032.14,1920.28,2182.43,600.16,610.03,26.54,0000 0000 0000 0000 000000
2016-01-23 10:23:14,0.26,5.65,0.00,16.18,20.57,24.41,14.91,49.33,1016.61,2058.82,2029.45,1918.46,2180.31,599.96,610.02,26.59,0000 0000 0000 0000 000000
2016-01-23 10:28:15,0.26,5.66,0.00,16.17,20.57,24.43,15.01,49.39,1016.60,2058.82,2026.96,1916.70,2178.28,600.06,610.21,26.64,0000 0000 0000 0000 000000
2016-01-23 10:33:16,0.24,5.68,0.00,16.19,20.57,24.44,14.92,49.25,1016.62,2058.86,2024.52,1914.87,2176.22,599.92,610.05,26.69,0000 0000 0000 0000 000000
2016-01-23 10:38:18,0.21,5.69,0.00,16.20,20.57,24.44,14.98,49.46,1016.60,2058.64,2022.02,1913.10,2174.27,599.83,609.78,26.74,0000 0000 0000 0000 000000
2016-01-23 10:43:19,0.26,5.70,0.00,16.20,20.57,24.41,14.85,49.57,1016.61,2058.74,2019.69,1911.42,2172.30,599.95,609.94,26.79,0000 0000 0000 0000 000000
2016-01-23 10:48:20,0.24,5.71,0.00,16.19,20.57,24.47,14.93,49.57,1016.62,2058.71,2017.38,1909.66,2170.34,599.85,609.92,26.84,0000 0000 0000 0000 000000
2016-01-23 10:53:22,0.22,5.72,0.00,16.18,20.57,24.43,14.96,49.46,1016.61,2058.52,2014.96,1907.89,2168.33,599.98,610.12,26.89,0000 0000 0000 0000 000000
2016-01-23 10:58:23,0.21,5.74,0.00,16.20,20.57,24.41,14.83,49.37,1016.32,2058.22,2012.36,1906.10,2166.28,599.85,609.53,26.94,0000 0000 0000 0000 000000
2016-01-23 11:03:24,0.24,5.75,0.00,16.25,20.57,24.44,14.89,49.58,1016.27,2058.20,2009.93,1904.33,2164.24,599.95,609.74,26.99,0000 0000 0000 0000 000000
2016-01-23 11:08:25,0.25,5.76,0.00,16.25,20.57,24.49,14.99,49.48,1016.14,2058.16,2007.48,1902.60,2162.27,600.04,609.68,27.04,0000 0000 0000 0000 000000
2016-01-23 11:13:27,0.28,5.77,0.00,16.23,20.57,24.48,14.87,49.16,1016.14,2058.15,2004.79,1900.73,2160.19,600.09,609.72,27.09,0000 0000 0000 0000 000000
2016-01-23 11:18:28,0.25,5.78,0.00,16.25,20.57,24.40,14.99,49.43,1015.87,2058.29,2002.23,1898.98,2158.18,600.02,609.55,27.14,0000 0000 0000 0000 000000
2016-01-23 11:23:29,0.25,5.80,0.00,16.29,20.57,24.44,14.91,49.52,1015.50,2058.34,1999.95,1897.27,2156.21,599.90,609.19,27.19,0000 0000 0000 0000 000000
2016-01-23 11:28:30,0.25,5.81,0.00,16.29,20.57,24.44,14.89,49.58,1015.16,2058.26,1997.43,1895.49,2154.14,599.97,608.94,27.24,0000 0000 0000 0000 000000
2016-01-23 11:33:31,0.24,5.82,0.00,16.32,20.57,24.42,14.87,49.81,1015.14,2058.16,1995.03,1893.67,2152.08,599.72,608.62,27.29,0000 0000 0000 0000 000000
2016-01-23 11:38:33,0.26,5.84,0.00,16.30,20.57,24.39,14.96,49.88,1015.15,2058.15,1992.47,1891.86,2149.96,599.98,608.78,27.34,0000 0000 0000 0000 000000
2016-01-23 11:43:34,0.24,5.85,0.00,16.29,20.57,24.43,14.95,49.78,1015.13,2058.08,1990.03,1890.02,2147.88,600.35,609.29,27.39,0000 0000 0000 0000 000000
2016-01-23 11:48:35,0.25,5.86,0.00,16.28,20.57,24.47,14.93,49.68,1014.92,2058.05,1987.57,1888.31,2145.85,600.02,608.73,27.44,0000 0000 0000 0000 000000
2016-01-23 11:53:37,0.26,5.88,0.00,16.24,20.57,24.48,14.95,49.85,1014.85,2058.07,1985.07,1886.38,2143.74,600.30,609.20,27.49,0000 0000 0000 0000 000000
2016-01-23 11:58:38,0.25,5.89,0.00,16.19,20.57,24.46,14.93,49.88,1014.80,2058.04,1982.72,1884.51,2141.64,599.83,608.87,27.55,0000 0000 0000 0000 000000
2016-01-23 12:03:39,0.26,5.90,0.00,16.17,20.56,24.41,14.93,49.92,1014.70,2058.02,1980.27,1882.72,2139.59,600.08,609.05,27.60,0000 0000 0000 0000 000000
2016-01-23 12:08:40,0.27,5.92,0.00,16.17,20.55,24.40,14.94,49.99,1014.80,2058.03,1977.68,1880.82,2137.38,600.00,609.02,27.65,0000 0000 0000 0000 000000
2016-01-23 12:13:42,0.25,5.93,0.00,16.17,20.54,24.44,15.02,49.99,1015.07,2058.03,1975.29,1879.07,2135.36,600.13,609.30,27.70,0000 0000 0000 0000 000000
2016-01-23 12:18:43,0.24,5.94,0.00,16.14,20.54,24.42,15.00,49.79,1015.15,2058.03,1972.77,1877.26,2133.32,599.97,609.19,27.75,0000 0000 0000 0000 000000
2016-01-23 12:23:44,0.26,5.96,0.00,16.10,20.54,24.41,15.02,49.82,1015.15,2058.02,1970.38,1875.53,2131.34,599.94,609.25,27.80,0000 0000 0000 0000 000000
2016-01-23 12:28:46,0.25,5.97,0.00,16.09,20.54,24.42,15.01,49.77,1015.15,2058.03,1968.02,1873.79,2129.42,600.51,609.87,27.85,0000 0000 0000 0000 000000
2016-01-23 12:33:47,0.25,5.98,0.00,16.07,20.54,24.38,14.97,49.93,1015.15,2058.04,1965.62,1872.04,2127.41,600.01,609.47,27.90,0000 0000 0000 0000 000000
2016-01-23 12:38:48,0.24,5.99,0.00,16.05,20.53,24.39,14.93,49.83,1015.15,2058.03,1963.28,1870.31,2125.42,599.67,609.14,27.95,0000 0000 0000 0000 000000
2016-01-23 12:43:50,0.27,6.01,0.00,16.00,20.52,24.34,14.90,49.96,1015.12,2058.04,1960.85,1868.47,2123.34,599.76,609.29,28.00,0000 0000 0000 0000 000000
2016-01-23 12:48:51,0.26,6.02,0.00,15.98,20.52,24.35,15.03,49.99,1015.15,2058.04,1958.41,1866.68,2121.29,599.77,609.33,28.05,0000 0000 0000 0000 000000
2016-01-23 12:53:52,0.25,6.03,0.00,15.93,20.51,24.33,15.11,50.13,1015.13,2058.02,1956.07,1864.99,2119.37,600.56,610.37,28.10,0000 0000 0000 0000 000000